TimeCEST,TemperatureF,Dew PointF,Humidity,Sea Level PressureIn,VisibilityMPH,Wind Direction,Wind SpeedMPH,Gust SpeedMPH,PrecipitationIn,Events,Conditions,WindDirDegrees,DateUTC
12:00 AM,60.8,57.2,88,29.95,6.2,Calm,Calm,-,N/A,,Scattered Clouds,0,2013-07-25 22:00:00
12:30 AM,60.8,57.2,88,29.95,6.2,Calm,Calm,-,N/A,,Scattered Clouds,0,2013-07-25 22:30:00
1:00 AM,59.0,55.4,88,29.95,6.2,Calm,Calm,-,N/A,,Unknown,0,2013-07-25 23:00:00
1:30 AM,59.0,57.2,94,29.95,6.2,SSE,1.2,-,N/A,,Unknown,150,2013-07-25 23:30:00
2:00 AM,55.4,53.6,94,29.95,6.2,Variable,3.5,-,N/A,,Unknown,0,2013-07-26 00:00:00
2:30 AM,55.4,55.4,100,29.92,6.2,SE,2.3,-,N/A,,Unknown,140,2013-07-26 00:30:00
3:00 AM,55.4,53.6,94,29.92,5.6,Variable,2.3,-,N/A,,Unknown,0,2013-07-26 01:00:00
3:30 AM,55.4,53.6,94,29.92,3.7,Calm,Calm,-,N/A,,Unknown,0,2013-07-26 01:30:00
4:00 AM,53.6,53.6,100,29.92,5.6,SE,4.6,-,N/A,,Unknown,130,2013-07-26 02:00:00
4:30 AM,53.6,53.6,100,29.92,6.2,SE,3.5,-,N/A,,Partly Cloudy,130,2013-07-26 02:30:00
5:00 AM,53.6,53.6,100,29.92,0.5,SSE,3.5,-,N/A,Fog,Fog,150,2013-07-26 03:00:00
5:30 AM,53.6,53.6,100,29.92,0.2,SE,4.6,-,N/A,Fog,Fog,140,2013-07-26 03:30:00
6:00 AM,53.6,53.6,100,29.92,0.2,SSE,3.5,-,N/A,Fog,Fog,160,2013-07-26 04:00:00
6:30 AM,51.8,51.8,100,29.92,0.9,SSE,1.2,-,N/A,Fog,Patches of Fog,150,2013-07-26 04:30:00
7:00 AM,51.8,51.8,100,29.92,5.0,Variable,1.2,-,N/A,,Unknown,0,2013-07-26 05:00:00
7:30 AM,53.6,53.6,100,29.92,6.2,Variable,3.5,-,N/A,,Unknown,0,2013-07-26 05:30:00
8:00 AM,57.2,55.4,94,29.92,6.2,SE,3.5,-,N/A,,Unknown,140,2013-07-26 06:00:00
8:30 AM,59.0,57.2,94,29.92,6.2,SE,3.5,-,N/A,,Unknown,130,2013-07-26 06:30:00
9:00 AM,62.6,57.2,82,29.92,6.2,Variable,2.3,-,N/A,,Unknown,0,2013-07-26 07:00:00
9:30 AM,64.4,59.0,83,29.92,6.2,Variable,3.5,-,N/A,,Unknown,0,2013-07-26 07:30:00
10:00 AM,68.0,57.2,68,29.92,6.2,SE,4.6,-,N/A,,Unknown,130,2013-07-26 08:00:00
10:30 AM,68.0,57.2,68,29.92,6.2,ESE,3.5,-,N/A,,Unknown,110,2013-07-26 08:30:00
11:00 AM,69.8,59.0,68,29.92,6.2,Variable,3.5,-,N/A,,Unknown,0,2013-07-26 09:00:00
11:30 AM,71.6,57.2,60,29.92,6.2,ENE,3.5,-,N/A,,Unknown,60,2013-07-26 09:30:00
12:00 PM,71.6,55.4,57,29.92,6.2,ESE,5.8,-,N/A,,Partly Cloudy,120,2013-07-26 10:00:00
12:30 PM,71.6,55.4,57,29.92,6.2,SSE,3.5,-,N/A,,Scattered Clouds,160,2013-07-26 10:30:00
1:00 PM,69.8,59.0,68,29.92,6.2,North,8.1,-,N/A,,Mostly Cloudy,350,2013-07-26 11:00:00
1:30 PM,68.0,57.2,68,29.89,6.2,NNE,9.2,-,N/A,,Mostly Cloudy,20,2013-07-26 11:30:00
2:00 PM,68.0,57.2,68,29.89,6.2,North,10.4,-,N/A,,Mostly Cloudy,10,2013-07-26 12:00:00
2:30 PM,69.8,59.0,68,29.89,6.2,North,8.1,-,N/A,,Mostly Cloudy,10,2013-07-26 12:30:00
3:00 PM,71.6,59.0,64,29.89,6.2,North,9.2,-,N/A,,Unknown,10,2013-07-26 13:00:00
3:30 PM,69.8,57.2,64,29.89,6.2,North,10.4,-,N/A,,Unknown,10,2013-07-26 13:30:00
4:00 PM,66.2,59.0,78,29.89,6.2,North,9.2,-,N/A,,Overcast,10,2013-07-26 14:00:00
4:30 PM,66.2,59.0,78,29.89,6.2,North,10.4,-,N/A,,Overcast,10,2013-07-26 14:30:00
5:00 PM,66.2,59.0,78,29.89,6.2,North,10.4,-,N/A,,Overcast,10,2013-07-26 15:00:00
5:30 PM,66.2,59.0,78,29.89,6.2,North,9.2,-,N/A,,Overcast,10,2013-07-26 15:30:00
6:00 PM,66.2,59.0,78,29.89,6.2,North,6.9,-,N/A,,Overcast,360,2013-07-26 16:00:00
6:30 PM,68.0,59.0,73,29.89,6.2,North,5.8,-,N/A,,Mostly Cloudy,10,2013-07-26 16:30:00
7:00 PM,69.8,59.0,68,29.86,6.2,North,5.8,-,N/A,,Mostly Cloudy,10,2013-07-26 17:00:00
7:30 PM,69.8,59.0,68,29.86,6.2,NNE,5.8,-,N/A,,Unknown,20,2013-07-26 17:30:00
8:00 PM,68.0,59.0,73,29.86,6.2,North,6.9,-,N/A,,Unknown,10,2013-07-26 18:00:00
8:30 PM,68.0,59.0,73,29.89,6.2,NNE,3.5,-,N/A,,Unknown,30,2013-07-26 18:30:00
9:00 PM,64.4,57.2,77,29.89,6.2,NNE,5.8,-,N/A,,Unknown,20,2013-07-26 19:00:00
9:30 PM,62.6,57.2,82,29.86,6.2,North,4.6,-,N/A,,Unknown,10,2013-07-26 19:30:00
10:00 PM,62.6,57.2,82,29.86,6.2,North,5.8,-,N/A,,Unknown,10,2013-07-26 20:00:00
10:30 PM,60.8,59.0,94,29.86,6.2,North,5.8,-,N/A,,Unknown,10,2013-07-26 20:30:00
11:00 PM,60.8,59.0,94,29.86,6.2,North,4.6,-,N/A,,Unknown,10,2013-07-26 21:00:00
11:30 PM,60.8,57.2,88,29.86,6.2,Variable,3.5,-,N/A,,Unknown,0,2013-07-26 21:30:00